#timestamp,LO_Frequency,Hit,StdDev 
1634270415.9,286047003.1,N
1634270435.7,286047003.0,N
1634270455.6,286047002.1,N
1634270475.4,286047004.5,N
1634270495.2,286047003.2,N
1634270515.1,286047003.5,N
1634270516.0,286047003.5,N
1634270535.8,286047006.8,Y
1634270555.6,286047003.5,P
1634270575.5,286047003.9,P
1634270595.3,286047004.0,P
1634270615.1,286047004.4,Y
1634270635.9,286046999.1,P
1634270655.7,286046998.6,N
1634270675.5,286046998.5,N
1634270695.4,286047000.8,N
1634270715.2,286047002.3,N
1634270735.0,286047001.0,N
1634270735.9,286047001.0,N
1634270755.8,286046999.3,N
1634270775.6,286046998.1,N
1634270795.4,286047000.1,N
1634270815.3,286047002.2,N
1634270835.1,286047002.6,N
1634270836.0,286047002.6,N
1634270855.8,286047002.4,N
1634270875.7,286047000.3,N
1634270895.5,286046999.8,N
1634270915.3,286047002.3,N
1634270935.2,286047000.9,N
1634270955.9,286047000.3,N
1634270975.7,286047002.8,N
1634270995.5,286047000.6,N
1634271015.4,286047000.1,N
1634271035.2,286047002.5,N
1634271055.0,286047002.0,N
1634271055.9,286047002.0,N
1634271075.8,286047003.0,N
1634271095.6,286047006.0,Y
1634271115.5,286047004.3,P
1634271135.3,286046999.8,N
1634271155.1,286047000.1,N
1634271175.8,286047002.2,N
1634271195.7,286047002.0,N
1634271215.5,286047004.3,N
1634271235.3,286047001.7,N
1634271255.2,286047001.5,N
1634271275.0,286047001.4,N
1634271275.9,286047001.4,N
1634271295.7,286047004.4,Y
1634271315.6,286046999.9,P
1634271335.4,286047000.9,N
1634271355.2,286046999.8,N
1634271375.1,286047000.7,N
1634271376.0,286047000.7,N
1634271395.8,286047000.3,N
1634271415.6,286047001.7,N
1634271435.5,286047001.0,N
1634271455.3,286047001.0,N
1634271475.1,286047001.9,N
1634271495.9,286047000.1,N
1634271515.7,286046998.5,N
1634271535.5,286046998.1,N
1634271555.4,286047002.3,N
1634271575.2,286047002.8,N
1634271595.0,286047002.5,N
1634271596.0,286047002.5,N
1634271615.8,286046998.6,N
1634271635.6,286046998.5,N
1634271655.4,286046998.4,N
1634271675.3,286046999.3,N
1634271695.1,286046998.7,N
1634271715.8,286047000.7,N
1634271735.7,286046999.6,N
1634271755.5,286046997.2,N
1634271775.3,286046996.9,N
1634271795.2,286046997.2,N
1634271815.0,286046994.9,Y
1634271815.9,286046994.9,P
1634271835.7,286046994.9,N
1634271855.6,286046996.8,N
1634271875.4,286046999.0,N
1634271895.2,286046999.2,N
1634271915.1,286046997.5,N
1634271916.0,286046997.5,N
1634271935.8,286046997.9,N
1634271955.6,286046996.2,N
1634271975.5,286046995.2,N
1634271995.3,286046993.9,Y
1634272015.1,286046995.5,P
1634272035.9,286046995.2,P
1634272055.7,286046993.7,P
1634272075.5,286046993.4,Y
1634272095.4,286046998.8,P
1634272115.2,286047011.9,P
1634272135.0,286046997.0,N
1634272135.9,286046997.0,N
1634272155.8,286046995.5,N
1634272175.6,286046993.9,N
1634272195.4,286046995.8,N
1634272215.3,286046996.2,N
1634272235.1,286046994.0,N
1634272255.8,286046994.7,N
1634272275.7,286046992.4,N
1634272295.5,286046996.3,N
1634272315.3,286046994.6,N
1634272335.2,286046993.9,N
1634272355.0,286046993.7,N
1634272355.9,286046993.7,N
1634272375.7,286046994.3,N
1634272395.6,286046993.1,N
1634272415.4,286046990.3,N
1634272435.2,286046991.6,N
1634272455.1,286046988.6,N
1634272456.0,286046988.6,N
1634272475.8,286046993.1,N
1634272495.6,286046991.0,N
1634272515.5,286046991.1,N
1634272535.3,286046990.2,N
1634272555.1,286046991.6,N
1634272575.9,286046989.2,N
1634272595.7,286046988.5,N
1634272615.5,286046988.5,N
1634272635.4,286046989.2,N
1634272655.2,286046989.2,N
1634272675.0,286046989.5,Y
1634272675.9,286046989.5,P
1634272695.8,286046995.1,P
1634272715.6,286046996.3,N
1634272735.4,286046998.0,N
1634272755.3,286046995.6,N
1634272775.1,286046996.3,N
1634272776.0,286046996.3,N
1634272795.8,286046993.4,N
1634272815.7,286046996.2,N
1634272835.5,286046994.9,N
1634272855.3,286047011.9,Y
1634272875.2,286046999.8,P
1634272895.9,286046998.5,N
1634272915.7,286047001.2,N
1634272935.6,286047000.0,N
1634272955.4,286047000.7,N
1634272975.2,286047001.0,N
1634272995.1,286047000.0,N
1634272996.0,286047000.0,N
1634273015.8,286047001.1,N
1634273035.6,286046999.5,N
1634273055.5,286046998.9,N
1634273075.3,286046999.2,N
1634273095.1,286046996.6,N
1634273115.9,286046999.3,N
1634273135.7,286046997.3,N
1634273155.5,286046997.3,N
1634273175.3,286046999.4,N
1634273195.2,286046999.6,N
1634273215.0,286046998.0,N
1634273215.9,286046998.0,N
1634273235.7,286046996.2,N
1634273255.6,286046997.4,N
1634273275.4,286046995.1,Y
1634273295.2,286047001.0,P
1634273315.1,286046999.2,N
1634273316.0,286046999.2,N
1634273335.8,286046996.7,Y
1634273355.7,286046998.7,P
1634273375.5,286046998.9,N
1634273395.3,286046998.9,P
1634273415.2,286046996.9,Y
1634273435.9,286047001.0,P
1634273455.7,286047000.0,N
1634273475.6,286047002.4,N
1634273495.4,286047002.5,N
1634273515.2,286046999.9,N
1634273535.0,286047000.8,N
1634273536.0,286047000.8,N
1634273555.8,286047000.7,N
1634273575.6,286047000.5,N
1634273595.4,286047000.8,N
1634273615.3,286047002.7,N
1634273635.1,286047001.9,N
1634273655.8,286047004.1,Y
1634273675.7,286046999.9,P
1634273695.5,286047000.3,N
1634273715.3,286046999.9,N
1634273735.2,286046998.7,N
1634273755.0,286046999.4,N
1634273755.9,286046999.4,N
1634273775.7,286046998.1,N
1634273795.6,286046998.2,N
1634273815.4,286047001.8,N
1634273835.2,286046999.8,N
1634273855.1,286047000.9,N
1634273856.0,286047000.9,N
1634273875.8,286047000.8,N
1634273895.6,286047000.0,N
1634273915.5,286046999.1,N
1634273935.3,286047001.0,N
1634273955.1,286046999.0,N
1634273975.9,286046997.3,N
1634273995.7,286046999.2,N
